DW5462 Weather Reports


time (UTC)temp
C
wind
direction
speed
KPH
gust
KPH
rain 1hr
cm
rain 24hr
cm
rain mn
cm
humidity
%
barometer
mb
20190422141630 21 346 6.4 16.1 0.00 0.00 0.00 25 1005.9
20190422140106 22 346 6.4 16.1 0.00 0.00 0.00 24 1006.0
20190422134624 22 58 9.7 16.1 0.00 0.00 0.00 26 1006.2
20190422133109 22 17 8.0 17.7 0.00 0.00 0.00 27 1006.5
20190422131651 22 49 6.4 14.5 0.00 0.00 0.00 25 1006.8
20190422130056 22 355 8.0 20.9 0.00 0.00 0.00 28 1007.0
20190422124556 22 26 6.4 16.1 0.00 0.00 0.00 29 1007.3
20190422123059 22 115 6.4 24.1 0.00 0.00 0.00 27 1007.5
20190422121551 22 360 6.4 16.1 0.00 0.00 0.00 29 1007.7
20190422120110 22 38 8.0 16.1 0.00 0.00 0.00 28 1008.0
20190422114702 22 94 4.8 12.9 0.00 0.00 0.00 27 1008.0
20190422113041 22 94 8.0 12.9 0.00 0.00 0.00 27 1008.3
20190422111554 22 40 4.8 14.5 0.00 0.00 0.00 29 1008.5
20190422110050 21 11 4.8 11.3 0.00 0.00 0.00 34 1008.7
20190422104542 21 67 4.8 12.9 0.00 0.00 0.00 31 1009.0
20190422103016 21 46 4.8 12.9 0.00 0.00 0.00 34 1009.1
20190422101516 20 73 6.4 17.7 0.00 0.00 0.00 32 1009.3
20190422100005 20 5 8.0 16.1 0.00 0.00 0.00 34 1009.5
20190422094648 20 360 9.7 16.1 0.00 0.00 0.00 34 1009.6
20190422093136 20 355 8.0 16.1 0.00 0.00 0.00 37 1009.8
20190422091641 19 347 8.0 16.1 0.00 0.00 0.00 35 1010.0
20190422090127 18 13 4.8 12.9 0.00 0.00 0.00 35 1010.3
20190422084632 18 342 4.8 12.9 0.00 0.00 0.00 40 1010.3
20190422083146 18 5 4.8 11.3 0.00 0.00 0.00 40 1010.5
20190422081659 17 350 6.4 12.9 0.00 0.00 0.00 41 1010.7
20190422080140 16 139 4.8 9.7 0.00 0.00 0.00 43 1011.0
20190422074556 16 11 3.2 6.4 0.00 0.00 0.00 45 1011.1
20190422073054 15 26 3.2 8.0 0.00 0.00 0.00 44 1011.3
20190422071538 14 73 1.6 6.4 0.00 0.00 0.00 47 1011.4
20190422070025 13 42 1.6 8.0 0.00 0.00 0.00 48 1011.7
20190422064523 12 75 1.6 6.4 0.00 0.00 0.00 50 1011.6
20190422063008 12 52 1.6 4.8 0.00 0.00 0.00 52 1011.8
20190422061515 10 49 1.6 6.4 0.00 0.00 0.00 55 1011.9
20190422060142 8 80 1.6 4.8 0.00 0.00 0.00 62 1012.0
20190422054724 6 94 0.0 3.2 0.00 0.00 0.00 75 1012.1
20190422053208 4 28 0.0 0.0 0.00 0.00 0.00 78 1012.2
20190422051651 3 28 0.0 0.0 0.00 0.00 0.00 81 1012.3
20190422050115 2 28 0.0 0.0 0.00 0.00 0.00 81 1012.4
20190422044556 2 28 0.0 0.0 0.00 0.00 0.00 81 1012.4
20190422043125 2 28 0.0 0.0 0.00 0.00 0.00 81 1012.4
20190422041602 2 28 0.0 0.0 0.00 0.00 0.00 80 1012.6
20190422040051 2 28 0.0 0.0 0.00 0.00 0.00 82 1012.6
20190422034552 2 28 0.0 0.0 0.00 0.00 0.00 80 1012.8
20190422033129 2 28 0.0 0.0 0.00 0.00 0.00 80 1013.0
20190422031557 2 28 0.0 0.0 0.00 0.00 0.00 78 1013.1
20190422030115 2 28 0.0 0.0 0.00 0.00 0.00 79 1013.2
20190422024544 3 28 0.0 0.0 0.00 0.00 0.00 78 1013.4
20190422023038 3 28 0.0 0.0 0.00 0.00 0.00 79 1013.5
20190422021546 3 28 0.0 0.0 0.00 0.00 0.00 79 1013.7
20190422020030 3 28 0.0 0.0 0.00 0.00 0.00 79 1013.9
20190422014523 3 28 0.0 0.0 0.00 0.00 0.00 78 1014.0
20190422013023 3 28 0.0 0.0 0.00 0.00 0.00 78 1014.1
20190422011531 4 28 0.0 0.0 0.00 0.00 0.00 74 1014.2
20190422010058 4 28 0.0 0.0 0.00 0.00 0.00 74 1014.2
20190422004534 4 28 0.0 0.0 0.00 0.00 0.00 73 1014.2
20190422003021 4 28 0.0 0.0 0.00 0.00 0.00 73 1014.4
20190422001536 5 28 0.0 0.0 0.00 0.00 0.00 72 1014.6
20190422000019 5 28 0.0 0.0 0.00 0.00 0.00 73 1014.7
20190421234534 5 28 0.0 0.0 0.00 0.00 0.00 74 1014.9
20190421233004 5 28 0.0 0.0 0.00 0.00 0.00 74 1015.1
20190421231503 4 28 0.0 0.0 0.00 0.00 0.00 77 1015.2
20190421230212 5 28 0.0 0.0 0.00 0.00 0.00 75 1015.2
20190421224708 5 28 0.0 0.0 0.00 0.00 0.00 73 1015.2
20190421223138 5 28 0.0 0.0 0.00 0.00 0.00 73 1015.2
20190421221700 6 28 0.0 0.0 0.00 0.00 0.00 71 1015.3
20190421220148 6 28 0.0 0.0 0.00 0.00 0.00 72 1015.4
20190421214645 6 28 0.0 0.0 0.00 0.00 0.00 70 1015.5
20190421213111 6 28 0.0 0.0 0.00 0.00 0.00 69 1015.6
20190421211719 7 28 0.0 0.0 0.00 0.00 0.00 67 1015.6
20190421210126 7 28 0.0 0.0 0.00 0.00 0.00 67 1015.7
20190421204635 8 28 0.0 0.0 0.00 0.00 0.00 64 1015.9
20190421203139 8 28 0.0 0.0 0.00 0.00 0.00 64 1015.9
20190421201656 9 28 0.0 0.0 0.00 0.00 0.00 58 1016.1
20190421200200 10 28 0.0 0.0 0.00 0.00 0.00 55 1016.2
20190421194616 10 28 0.0 0.0 0.00 0.00 0.00 54 1016.3
20190421193124 11 28 0.0 1.6 0.00 0.00 0.00 53 1016.3
20190421191643 12 28 0.0 0.0 0.00 0.00 0.00 51 1016.2
20190421190131 12 28 0.0 0.0 0.00 0.00 0.00 49 1016.2
20190421184658 13 28 0.0 0.0 0.00 0.00 0.00 44 1016.2
20190421183115 15 28 0.0 0.0 0.00 0.00 0.00 39 1016.2
20190421181602 16 28 0.0 0.0 0.00 0.00 0.00 32 1016.2
20190421180103 18 28 0.0 1.6 0.00 0.00 0.00 28 1016.2
20190421174538 18 28 0.0 3.2 0.00 0.00 0.00 28 1016.2
20190421173052 20 29 0.0 4.8 0.00 0.00 0.00 27 1016.2
20190421171609 20 5 3.2 6.4 0.00 0.00 0.00 25 1016.3
20190421170158 20 58 3.2 8.0 0.00 0.00 0.00 23 1016.3
20190421164552 21 5 3.2 8.0 0.00 0.00 0.00 22 1016.4
20190421161549 22 99 1.6 8.0 0.00 0.00 0.00 22 1016.6
20190421160053 22 49 1.6 9.7 0.00 0.00 0.00 21 1016.8
20190421154550 22 24 3.2 9.7 0.00 0.00 0.00 21 1016.9
20190421153121 22 5 3.2 8.0 0.00 0.00 0.00 24 1017.0
20190421151548 22 51 1.6 11.3 0.00 0.00 0.00 20 1017.1
20190421150030 22 115 1.6 8.0 0.00 0.00 0.00 21 1017.2
20190421144545 22 126 1.6 9.7 0.00 0.00 0.00 20 1017.4
20190421143053 22 86 1.6 11.3 0.00 0.00 0.00 20 1017.5